Location: Catenanuova
(37.5690°N, 14.6870°E)
Time: 19:17:24
(UTC+02:00)

ARIANE 6 FM1 Upper Stage - Visible Passes

Search period start: 15 June 2025 00:00
Search period end: 25 June 2025 00:00
Orbit: 531 x 610 km, 62.0° (Epoch: 14 June)

Date Brightness Start Highest point End Pass type
(mag) Time Alt. Az. Time Alt. Az. Time Alt. Az.
15 Jun 3.0 21:35:10 10° NNW 21:39:14 53° NE 21:41:55 20° SE visible
15 Jun 5.0 23:15:50 10° W 23:17:57 14° WSW 23:18:02 14° WSW visible
16 Jun 2.6 21:36:45 10° NNW 21:40:56 85° ENE 21:43:43 21° SE visible
17 Jun 3.0 21:38:28 10° NW 21:42:33 59° WSW 21:45:34 18° SSE visible
18 Jun 3.9 21:40:19 10° NW 21:44:09 36° WSW 21:47:30 13° S visible
19 Jun 4.6 21:42:23 10° WNW 21:45:41 23° WSW 21:49:03 10° SSW visible
20 Jun 5.2 21:44:52 10° W 21:47:11 15° WSW 21:49:32 10° SSW visible
